When you browse on this site, cookies collect data to enhance your experience and personalize the content and advertising you see.
Visit our Privacy Policy to learn more. By continuing to use the site, you agree to this use of cookies and data.
EN

Hourly Weather Hilvan

Today, 4 July, Saturday

Time Temperature Precipitation Wind Pressure Humidity
00:00 +32°C° 0 mm 1 mps 705 mmHg 20%
01:00 +31°C° 0 mm 1 mps 705 mmHg 20%
02:00 +31°C° 0 mm 1 mps 705 mmHg 21%
03:00 +30°C° 0 mm 1 mps 704 mmHg 21%
04:00 +30°C° 0 mm 1 mps 704 mmHg 21%
05:00 +30°C° 0 mm 1 mps 705 mmHg 21%
06:00 +30°C° 0 mm 2 mps 705 mmHg 21%
07:00 +34°C° 0 mm 2 mps 705 mmHg 18%
08:00 +37°C° 0 mm 2 mps 705 mmHg 15%
09:00 +39°C° 0 mm 2 mps 706 mmHg 12%
10:00 +40°C° 0 mm 2 mps 706 mmHg 11%
11:00 +42°C° 0 mm 3 mps 706 mmHg 10%
12:00 +43°C° 0 mm 4 mps 706 mmHg 9%
13:00 +44°C° 0 mm 4 mps 705 mmHg 9%
14:00 +44°C° 0 mm 4 mps 705 mmHg 9%
15:00 +44°C° 0 mm 4 mps 705 mmHg 9%
16:00 +43°C° 0 mm 4 mps 704 mmHg 10%
17:00 +43°C° 0 mm 4 mps 704 mmHg 10%
18:00 +43°C° 0 mm 3 mps 703 mmHg 10%
19:00 +40°C° 0 mm 3 mps 703 mmHg 12%
20:00 +38°C° 0 mm 2 mps 703 mmHg 13%
21:00 +35°C° 0 mm 1 mps 703 mmHg 15%
22:00 +34°C° 0 mm 1 mps 703 mmHg 15%
23:00 +34°C° 0 mm 2 mps 703 mmHg 15%

Tomorrow, 5 July, Sunday

Time Temperature Precipitation Wind Pressure Humidity
00:00 +32°C° 0 mm 2 mps 703 mmHg 15%
01:00 +32°C° 0 mm 2 mps 703 mmHg 16%
02:00 +31°C° 0 mm 2 mps 703 mmHg 16%
03:00 +30°C° 0 mm 2 mps 702 mmHg 17%
04:00 +30°C° 0 mm 1 mps 702 mmHg 18%
05:00 +29°C° 0 mm 1 mps 702 mmHg 20%
06:00 +29°C° 0 mm 1 mps 702 mmHg 22%
07:00 +31°C° 0 mm 2 mps 702 mmHg 20%
08:00 +35°C° 0 mm 2 mps 702 mmHg 18%
09:00 +37°C° 0 mm 2 mps 703 mmHg 16%
10:00 +39°C° 0 mm 2 mps 702 mmHg 13%
11:00 +40°C° 0 mm 2 mps 702 mmHg 11%
12:00 +42°C° 0 mm 2 mps 702 mmHg 9%
13:00 +42°C° 0 mm 2 mps 702 mmHg 8%
14:00 +43°C° 0 mm 2 mps 701 mmHg 8%
15:00 +44°C° 0 mm 3 mps 701 mmHg 7%
16:00 +44°C° 0 mm 3 mps 700 mmHg 8%
17:00 +44°C° 0 mm 3 mps 700 mmHg 8%
18:00 +43°C° 0 mm 3 mps 700 mmHg 8%
19:00 +40°C° 0 mm 3 mps 700 mmHg 11%
20:00 +38°C° 0 mm 3 mps 700 mmHg 13%
21:00 +36°C° 0 mm 2 mps 700 mmHg 15%
22:00 +35°C° 0 mm 2 mps 700 mmHg 17%
23:00 +34°C° 0 mm 2 mps 700 mmHg 19%

Day after tomorrow, 6 July, Monday

Time Temperature Precipitation Wind Pressure Humidity
00:00 +32°C° 0 mm 2 mps 700 mmHg 21%
01:00 +32°C° 0 mm 2 mps 700 mmHg 22%
02:00 +31°C° 0 mm 2 mps 700 mmHg 24%
03:00 +31°C° 0 mm 3 mps 700 mmHg 25%
04:00 +31°C° 0 mm 3 mps 700 mmHg 27%
05:00 +30°C° 0 mm 3 mps 700 mmHg 28%
06:00 +30°C° 0 mm 3 mps 700 mmHg 30%
07:00 +34°C° 0 mm 4 mps 700 mmHg 27%
08:00 +36°C° 0 mm 4 mps 700 mmHg 23%
09:00 +39°C° 0 mm 5 mps 701 mmHg 20%
10:00 +41°C° 0 mm 4 mps 701 mmHg 17%
11:00 +42°C° 0 mm 4 mps 700 mmHg 15%
12:00 +43°C° 0 mm 3 mps 700 mmHg 12%
13:00 +43°C° 0 mm 3 mps 700 mmHg 12%
14:00 +44°C° 0 mm 3 mps 699 mmHg 11%
15:00 +43°C° 0 mm 2 mps 699 mmHg 11%
16:00 +43°C° 0 mm 2 mps 699 mmHg 11%
17:00 +42°C° 0 mm 2 mps 699 mmHg 11%
18:00 +42°C° 0 mm 2 mps 698 mmHg 11%
19:00 +40°C° 0 mm 2 mps 699 mmHg 13%
20:00 +38°C° 0 mm 2 mps 699 mmHg 15%
21:00 +37°C° 0 mm 2 mps 699 mmHg 16%
22:00 +36°C° 0 mm 2 mps 699 mmHg 18%
23:00 +34°C° 0 mm 1 mps 699 mmHg 19%

7 July, Tuesday

Time Temperature Precipitation Wind Pressure Humidity
00:00 +33°C° 0 mm 1 mps 699 mmHg 21%
01:00 +32°C° 0 mm 1 mps 699 mmHg 23%
02:00 +31°C° 0 mm 1 mps 699 mmHg 26%
03:00 +30°C° 0 mm 1 mps 699 mmHg 28%
04:00 +30°C° 0 mm 2 mps 699 mmHg 28%
05:00 +30°C° 0 mm 2 mps 700 mmHg 27%
06:00 +30°C° 0 mm 2 mps 700 mmHg 27%
07:00 +32°C° 0 mm 2 mps 700 mmHg 24%
08:00 +36°C° 0 mm 2 mps 701 mmHg 20%
09:00 +38°C° 0 mm 3 mps 701 mmHg 17%
10:00 +40°C° 0 mm 3 mps 701 mmHg 15%
11:00 +42°C° 0 mm 3 mps 701 mmHg 13%
12:00 +44°C° 0 mm 3 mps 701 mmHg 11%
13:00 +44°C° 0 mm 4 mps 701 mmHg 11%
14:00 +45°C° 0 mm 4 mps 701 mmHg 10%
15:00 +46°C° 0 mm 5 mps 701 mmHg 9%
16:00 +46°C° 0 mm 5 mps 701 mmHg 9%
17:00 +45°C° 0 mm 6 mps 701 mmHg 9%
18:00 +45°C° 0 mm 6 mps 701 mmHg 9%
19:00 +42°C° 0 mm 6 mps 701 mmHg 12%
20:00 +39°C° 0 mm 5 mps 701 mmHg 14%
21:00 +36°C° 0 mm 5 mps 702 mmHg 17%
22:00 +35°C° 0 mm 4 mps 702 mmHg 23%
23:00 +33°C° 0 mm 3 mps 702 mmHg 28%

8 July, Wednesday

Time Temperature Precipitation Wind Pressure Humidity
00:00 +31°C° 0 mm 3 mps 701 mmHg 34%
01:00 +30°C° 0 mm 2 mps 701 mmHg 35%
02:00 +30°C° 0 mm 2 mps 701 mmHg 36%
03:00 +29°C° 0 mm 1 mps 701 mmHg 37%
04:00 +29°C° 0 mm 1 mps 701 mmHg 40%
05:00 +28°C° 0 mm 1 mps 701 mmHg 43%
06:00 +28°C° 0 mm 1 mps 701 mmHg 46%
07:00 +30°C° 0 mm 1 mps 702 mmHg 39%
08:00 +34°C° 0 mm 2 mps 702 mmHg 33%
09:00 +36°C° 0 mm 2 mps 703 mmHg 26%
10:00 +38°C° 0 mm 3 mps 703 mmHg 21%
11:00 +41°C° 0 mm 4 mps 703 mmHg 16%
12:00 +43°C° 0 mm 4 mps 703 mmHg 12%
13:00 +45°C° 0 mm 5 mps 703 mmHg 11%
14:00 +46°C° 0 mm 5 mps 703 mmHg 11%
15:00 +46°C° 0 mm 6 mps 702 mmHg 10%
16:00 +45°C° 0 mm 6 mps 702 mmHg 10%
17:00 +45°C° 0 mm 6 mps 702 mmHg 11%
18:00 +44°C° 0 mm 7 mps 702 mmHg 11%
19:00 +40°C° 0 mm 6 mps 702 mmHg 16%
20:00 +38°C° 0 mm 6 mps 702 mmHg 20%
21:00 +35°C° 0 mm 6 mps 702 mmHg 24%
22:00 +33°C° 0 mm 5 mps 702 mmHg 28%
23:00 +32°C° 0 mm 4 mps 702 mmHg 33%

9 July, Thursday

Time Temperature Precipitation Wind Pressure Humidity
00:00 +29°C° 0 mm 3 mps 702 mmHg 37%
01:00 +28°C° 0 mm 2 mps 701 mmHg 43%
02:00 +27°C° 0 mm 2 mps 701 mmHg 48%
03:00 +26°C° 0 mm 1 mps 701 mmHg 54%
04:00 +26°C° 0 mm 1 mps 701 mmHg 56%
05:00 +26°C° 0 mm 1 mps 701 mmHg 59%
06:00 +25°C° 0 mm 1 mps 701 mmHg 61%
07:00 +28°C° 0 mm 1 mps 701 mmHg 52%
08:00 +30°C° 0 mm 2 mps 701 mmHg 43%
09:00 +32°C° 0 mm 2 mps 701 mmHg 34%
10:00 +35°C° 0 mm 3 mps 701 mmHg 28%
11:00 +37°C° 0 mm 3 mps 701 mmHg 22%
12:00 +39°C° 0 mm 3 mps 701 mmHg 16%
13:00 +41°C° 0 mm 4 mps 701 mmHg 14%
14:00 +42°C° 0 mm 4 mps 701 mmHg 12%
15:00 +43°C° 0 mm 5 mps 700 mmHg 10%
16:00 +43°C° 0 mm 5 mps 700 mmHg 10%
17:00 +42°C° 0 mm 5 mps 700 mmHg 10%
18:00 +42°C° 0 mm 6 mps 699 mmHg 11%
19:00 +39°C° 0 mm 5 mps 700 mmHg 20%
20:00 +35°C° 0 mm 5 mps 700 mmHg 29%
21:00 +32°C° 0 mm 5 mps 700 mmHg 38%
22:00 +30°C° 0 mm 4 mps 700 mmHg 42%
23:00 +29°C° 0 mm 3 mps 700 mmHg 46%
Show more